Temperature
2 2 2 2 1 1 1 1 0 -0 0 0 0 1 1 1 1 1 1 2 1 1 1 1 0 0 0 0 0 1 1 2 3 3 4 5 5 6
1 1 1 1 1 0 0 0 -0 -0 -1 -1 -0 -0 -0 -0 -0 -0 0 0 0 0 0 0 -0 -0 -0 -0 -0 -0 0 1 1 2 3 3 4 5
1 0 0 -0 -0 -1 -1 -1 -1 -1 -1 -1 -1 -1 -1 -1 -1 -1 -1 -1 -1 -1 -1 -1 -1 -1 -1 -1 -1 -1 -0 0 1 1 2 2 3 4
-1 -1 -1 -1 -2 -2 -2 -2 -2 -2 -2 -2 -2 -2 -2 -2 -2 -2 -2 -2 -2 -2 -2 -1 -1 -1 -1 -1 -1 -1 -1 -1 -0 0 1 1 2 3
-2 -2 -2 -3 -3 -3 -3 -4 -4 -4 -3 -3 -3 -3 -3 -3 -3 -3 -2 -2 -2 -2 -2 -2 -2 -2 -2 -2 -2 -2 -2 -1 -1 -0 -0 1 1 2
-3 -3 -4 -4 -4 -4 -4 -4 -4 -4 -4 -4 -4 -4 -4 -3 -3 -3 -3 -3 -3 -3 -3 -3 -3 -3 -3 -2 -2 -2 -2 -2 -2 -1 -1 -0 0 1
-3 -4 -4 -4 -5 -5 -4 -4 -4 -4 -4 -4 -4 -4 -4 -3 -3 -3 -3 -3 -3 -3 -3 -3 -3 -3 -3 -3 -3 -3 -2 -2 -2 -2 -1 -1 -0 0
-4 -4 -5 -5 -5 -5 -5 -4 -4 -4 -4 -4 -3 -3 -4 -4 -4 -4 -4 -4 -4 -3 -3 -3 -3 -3 -3 -3 -3 -3 -3 -3 -3 -2 -2 -1 -1 -1
-5 -5 -5 -5 -5 -5 -5 -5 -4 -4 -4 -4 -4 -4 -4 -4 -4 -4 -4 -4 -4 -4 -4 -4 -4 -4 -3 -3 -3 -3 -3 -3 -3 -3 -2 -2 -2 -1
-5 -5 -5 -5 -5 -5 -5 -5 -4 -4 -4 -4 -4 -4 -4 -4 -4 -4 -4 -4 -4 -4 -4 -4 -4 -4 -4 -4 -4 -4 -4 -4 -4 -3 -3 -3 -2 -2
-5 -5 -5 -6 -5 -5 -5 -5 -5 -4 -4 -4 -4 -4 -4 -4 -4 -4 -4 -4 -4 -4 -4 -4 -4 -4 -4 -4 -4 -4 -4 -4 -4 -4 -3 -3 -3 -2
-5 -6 -6 -6 -6 -5 -5 -5 -5 -5 -5 -5 -4 -4 -4 -4 -4 -4 -4 -4 -4 -4 -4 -4 -4 -4 -4 -4 -4 -4 -4 -4 -4 -4 -4 -4 -3 -3
-6 -6 -6 -6 -6 -6 -5 -5 -5 -5 -5 -5 -5 -5 -5 -5 -4 -4 -4 -4 -5 -5 -4 -5 -4 -5 -5 -5 -4 -4 -4 -4 -4 -4 -4 -4 -4 -4
-6 -6 -6 -6 -6 -6 -6 -6 -5 -5 -5 -5 -5 -5 -5 -5 -5 -5 -5 -5 -5 -5 -5 -5 -5 -5 -5 -5 -5 -5 -5 -4 -5 -5 -5 -4 -4 -4
-7 -7 -7 -6 -6 -6 -6 -6 -6 -6 -6 -6 -6 -6 -6 -6 -6 -5 -5 -5 -5 -5 -5 -5 -5 -5 -5 -5 -5 -5 -5 -5 -5 -5 -5 -5 -5 -5
-7 -7 -7 -7 -7 -7 -7 -6 -6 -7 -7 -7 -7 -6 -6 -6 -6 -6 -6 -6 -6 -6 -6 -6 -6 -6 -6 -6 -6 -6 -6 -6 -5 -5 -5 -6 -5 -5
-7 -7 -7 -7 -7 -7 -7 -7 -7 -7 -7 -7 -7 -7 -7 -7 -6 -6 -6 -6 -6 -6 -6 -6 -6 -6 -6 -6 -6 -6 -6 -6 -6 -6 -6 -6 -6 -6
-7 -7 -7 -8 -8 -8 -8 -8 -8 -8 -8 -8 -7 -7 -7 -7 -7 -7 -7 -6 -6 -6 -6 -6 -6 -6 -7 -6 -6 -6 -6 -6 -6 -6 -6 -6 -6 -6
-8 -8 -8 -8 -8 -8 -8 -8 -8 -8 -8 -8 -8 -8 -8 -7 -7 -7 -7 -7 -7 -7 -7 -7 -7 -7 -7 -7 -6 -6 -6 -6 -6 -7 -7 -7 -6 -6
-8 -8 -8 -8 -8 -8 -8 -8 -8 -8 -8 -8 -8 -8 -8 -8 -8 -8 -8 -7 -7 -7 -7 -7 -7 -7 -7 -7 -7 -7 -7 -7 -7 -7 -7 -7 -7 -7
-8 -8 -8 -8 -8 -8 -9 -9 -9 -9 -9 -9 -8 -8 -8 -8 -8 -8 -8 -8 -8 -8 -7 -7 -7 -7 -7 -7 -7 -7 -7 -7 -7 -7 -7 -7 -7 -8
-9 -9 -9 -9 -9 -9 -9 -9 -9 -9 -9 -9 -9 -9 -9 -9 -9 -9 -8 -8 -8 -8 -8 -8 -8 -8 -8 -8 -8 -8 -7 -7 -7 -8 -8 -8 -8 -8
-9 -9 -9 -9 -9 -9 -9 -9 -9 -9 -9 -9 -9 -9 -9 -9 -9 -9 -9 -9 -9 -9 -8 -8 -8 -8 -8 -8 -8 -8 -8 -8 -8 -8 -8 -8 -8 -8
Wind_Speed
9 10 9 8 8 8 8 9 12 19 17 9 6 7 6 11 17 17 15 23 28 28 28 28 29 30 31 32 33 34 35 35 36 36 37 38 39 39
8 10 10 9 8 8 8 9 9 14 20 11 7 7 8 10 21 19 16 26 27 29 29 29 29 30 31 31 32 33 34 35 35 36 37 37 38 37
10 10 10 10 8 8 8 8 9 10 18 17 8 7 9 10 12 13 16 14 16 27 30 31 30 30 30 30 31 32 33 33 34 35 36 37 38 38
10 10 11 11 11 9 9 10 10 10 14 21 14 8 9 10 10 12 12 14 12 25 30 31 31 30 30 30 30 30 31 32 33 34 35 36 37 37
10 11 12 12 14 12 12 13 12 14 12 16 18 10 9 9 11 12 13 11 14 21 26 28 29 30 29 29 29 29 30 30 31 32 33 33 34 35
11 12 13 14 15 15 15 14 14 14 13 15 16 13 11 9 9 10 11 9 12 12 17 21 25 28 28 28 28 28 28 28 30 31 31 31 31 32
12 12 14 19 23 20 17 13 13 14 14 15 16 15 12 9 10 9 12 10 10 10 10 11 11 10 12 21 25 26 26 27 28 29 30 30 30 30
12 12 14 18 22 27 29 27 23 17 14 14 15 15 15 12 10 10 12 13 12 6 9 11 8 10 9 8 20 25 25 25 26 27 28 28 28 29
12 12 15 16 22 15 21 26 25 28 27 19 17 17 16 13 12 14 14 14 14 7 7 11 8 10 9 13 23 24 24 25 25 25 25 26 26 26
12 13 15 15 16 18 15 15 15 16 20 16 14 16 16 14 14 15 15 15 14 10 9 12 10 10 11 9 20 24 24 24 24 23 23 24 24 24
12 13 15 15 23 28 20 16 16 15 20 26 27 25 27 28 23 13 11 12 13 9 7 8 9 8 8 8 13 22 23 22 22 22 22 22 22 22
11 12 20 22 26 28 18 15 18 16 14 15 18 20 18 19 25 15 11 13 12 8 6 7 7 6 6 6 8 8 11 17 20 20 20 20 20 12
12 10 11 24 28 29 26 16 21 21 14 13 12 11 10 10 11 11 10 11 12 10 5 5 5 6 6 4 4 6 7 7 7 10 15 18 19 15
12 11 13 26 29 29 23 22 27 22 9 9 9 9 9 8 8 8 9 10 11 12 8 7 6 6 6 6 4 4 5 5 6 6 6 11 14 17
13 22 26 28 27 19 21 24 19 10 8 9 9 9 7 8 7 7 7 8 10 9 9 9 9 7 7 7 4 4 3 4 6 5 5 6 6 5
14 18 24 24 19 18 16 12 8 8 9 8 9 8 7 7 7 7 7 6 6 7 7 9 10 10 9 8 6 5 5 4 5 5 5 5 4 5
15 11 8 8 8 7 7 7 7 7 8 7 7 7 8 7 7 6 6 5 6 5 5 5 7 8 8 7 6 6 5 4 4 5 5 5 5 5
18 9 9 9 9 9 8 8 7 7 7 7 7 7 8 8 7 6 5 5 6 5 5 4 5 4 4 6 8 6 6 6 5 5 5 5 5 4
11 8 9 9 9 8 8 8 8 7 7 7 7 7 7 7 6 6 5 5 5 5 4 4 5 6 6 5 5 10 7 6 6 6 6 6 6 6
7 9 9 8 8 8 8 8 8 7 6 7 7 7 6 6 7 6 6 6 5 5 4 4 5 7 8 6 4 4 11 8 6 7 6 5 4 6
9 9 8 8 8 8 8 8 8 8 8 7 7 7 6 6 6 6 6 9 7 5 6 5 6 7 4 3 3 3 5 11 9 6 6 6 5 5
10 9 8 8 8 8 8 8 8 8 8 7 7 7 6 6 7 7 6 6 5 5 5 4 3 4 4 6 6 5 4 5 9 13 12 10 6 7
10 9 9 9 8 8 7 8 9 8 8 7 7 6 6 6 6 6 6 6 6 6 5 4 3 4 5 6 5 5 6 6 5 6 8 13 16 15
Wind_Direction
259 259 260 259 255 256 256 255 271 285 283 267 257 258 271 280 283 285 274 272 272 270 269 268 269 269 269 268 266 264 262 261 260 258 256 251 246 241
265 265 265 265 262 258 257 258 256 270 281 277 259 253 264 275 281 284 283 283 279 276 274 273 272 271 270 268 266 264 262 259 257 256 255 254 251 245
283 281 278 277 276 272 268 266 264 264 277 283 269 261 259 266 274 275 277 277 276 277 276 274 272 271 270 269 267 264 262 259 257 254 253 252 251 248
288 290 291 294 290 288 283 278 275 271 275 283 284 273 263 265 268 268 273 273 266 272 274 273 272 271 270 269 267 265 263 260 258 256 253 251 251 250
285 287 288 289 286 283 280 279 278 278 274 279 284 281 273 268 269 269 266 267 268 270 271 272 271 271 271 270 268 266 263 260 257 255 254 253 251 250
276 278 280 279 280 280 280 275 274 273 271 272 277 279 275 265 262 267 271 262 264 266 267 268 268 269 268 269 269 268 265 262 259 256 253 251 251 250
278 277 277 280 281 282 280 274 269 270 271 271 273 276 275 270 266 264 270 270 263 256 259 260 260 256 260 265 267 269 267 264 261 258 254 251 249 247
285 283 284 286 286 286 286 286 283 278 277 276 279 277 278 274 271 269 272 274 274 237 247 257 248 250 247 242 256 261 263 263 262 259 255 252 250 246
286 287 290 289 291 284 284 285 285 283 282 279 278 277 278 274 271 272 270 269 270 256 252 264 251 254 249 251 255 256 258 260 261 260 257 252 250 247
283 283 284 284 284 285 280 276 273 273 274 275 269 269 268 266 259 262 266 269 267 258 245 263 257 252 250 242 252 253 257 258 259 260 258 254 249 246
282 284 288 287 288 292 291 286 284 280 281 279 277 276 274 275 272 266 260 265 269 261 228 245 255 252 246 241 243 249 253 255 256 256 256 255 250 244
288 284 290 293 295 296 294 289 288 286 282 280 279 278 277 275 277 270 263 266 270 268 225 226 244 238 249 237 232 236 245 250 252 254 254 254 249 242
295 293 289 297 298 298 298 292 289 291 285 281 280 275 270 263 259 254 247 251 259 259 229 217 234 228 235 246 230 223 220 227 240 251 254 252 249 236
298 295 293 299 301 301 301 296 298 301 295 290 286 283 280 277 270 258 248 244 246 252 246 230 239 235 233 233 233 221 214 213 215 225 231 249 252 243
295 297 300 303 306 304 301 302 306 303 295 292 289 285 280 277 275 270 259 253 250 245 243 239 242 241 235 234 218 199 203 214 208 212 216 219 224 231
294 295 300 302 301 299 301 303 297 291 296 290 290 289 286 282 281 273 269 268 262 256 239 233 233 234 240 232 219 204 191 197 201 204 205 211 212 208
302 297 295 296 296 295 295 295 296 298 300 292 292 295 295 290 284 277 268 261 258 259 251 234 228 228 235 230 221 212 201 201 195 188 194 210 216 211
308 301 300 299 300 301 303 302 300 300 298 297 295 293 297 296 292 284 273 266 265 257 246 232 220 221 228 235 220 213 204 203 195 188 187 199 213 210
304 295 294 296 296 297 298 298 298 297 296 294 293 293 295 295 293 288 280 274 267 257 244 225 215 212 222 232 229 212 206 200 189 192 196 197 207 206
285 287 288 290 291 292 293 294 295 295 294 293 291 289 289 291 293 288 281 273 267 260 251 232 220 215 220 223 216 214 206 199 195 197 198 198 206 213
289 286 284 286 287 288 290 290 290 291 291 291 291 288 286 285 286 284 282 281 274 259 253 243 231 220 209 193 212 218 215 210 204 197 188 192 199 201
287 285 284 283 284 284 286 287 288 288 289 288 287 288 288 286 283 282 279 274 265 258 260 254 222 206 203 214 225 220 212 210 218 220 214 204 190 197
286 284 283 282 280 280 281 282 283 285 285 284 284 283 282 283 281 276 273 270 265 259 254 248 230 218 218 215 220 221 214 208 207 216 227 231 231 231
Height
1471 1468 1465 1462 1460 1457 1455 1452 1446 1434 1425 1427 1428 1429 1429 1428 1427 1425 1423 1421 1420 1419 1417 1416 1414 1413 1412 1411 1411 1412 1413 1415 1417 1420 1423 1426 1429 1433
1463 1460 1456 1453 1451 1448 1445 1443 1439 1433 1419 1415 1417 1418 1418 1417 1417 1415 1412 1411 1410 1409 1408 1406 1404 1403 1402 1401 1401 1401 1402 1403 1405 1408 1411 1414 1417 1421
1454 1451 1447 1445 1441 1438 1435 1432 1429 1426 1415 1405 1407 1408 1407 1406 1405 1404 1402 1400 1399 1398 1397 1396 1394 1393 1392 1391 1390 1390 1391 1392 1394 1397 1399 1403 1406 1410
1445 1441 1437 1434 1430 1427 1424 1421 1418 1416 1411 1399 1395 1397 1397 1396 1394 1392 1391 1389 1388 1387 1386 1385 1383 1382 1381 1380 1380 1380 1380 1381 1383 1385 1388 1391 1395 1398
1436 1432 1427 1424 1419 1417 1413 1410 1407 1405 1402 1395 1387 1386 1386 1385 1383 1381 1380 1378 1377 1376 1375 1374 1373 1372 1371 1370 1370 1370 1370 1371 1372 1374 1377 1380 1383 1387
1426 1422 1418 1415 1410 1407 1403 1400 1397 1394 1391 1387 1380 1377 1376 1375 1374 1371 1368 1367 1366 1365 1364 1363 1362 1361 1361 1360 1360 1360 1360 1360 1362 1363 1366 1369 1372 1376
1416 1413 1409 1405 1402 1399 1395 1391 1389 1385 1381 1378 1373 1369 1367 1366 1365 1362 1359 1357 1355 1355 1353 1352 1352 1351 1350 1350 1350 1350 1350 1350 1351 1353 1355 1358 1361 1365
1407 1403 1400 1396 1392 1389 1387 1384 1381 1377 1373 1370 1365 1362 1359 1358 1356 1354 1351 1348 1345 1345 1344 1341 1342 1340 1340 1341 1341 1341 1340 1341 1341 1343 1345 1348 1351 1355
1399 1395 1391 1387 1384 1380 1376 1373 1371 1368 1366 1362 1357 1353 1351 1350 1348 1345 1343 1340 1337 1336 1336 1332 1332 1330 1331 1331 1332 1332 1332 1332 1333 1334 1336 1338 1341 1345
1392 1388 1383 1379 1376 1372 1367 1363 1360 1357 1355 1352 1348 1344 1342 1340 1338 1336 1333 1330 1328 1327 1327 1324 1323 1322 1322 1322 1323 1323 1324 1324 1324 1325 1327 1329 1332 1336
1384 1380 1376 1371 1367 1364 1360 1354 1350 1346 1345 1342 1339 1335 1333 1331 1329 1327 1324 1322 1318 1317 1318 1316 1314 1314 1313 1313 1314 1315 1316 1316 1317 1318 1320 1322 1325 1328
1375 1371 1368 1364 1359 1356 1352 1346 1341 1337 1334 1330 1327 1325 1322 1320 1319 1318 1315 1313 1311 1309 1308 1308 1307 1307 1305 1305 1306 1307 1308 1309 1310 1311 1313 1315 1318 1321
1366 1362 1358 1355 1351 1347 1343 1338 1333 1329 1325 1321 1317 1314 1312 1310 1308 1307 1306 1305 1303 1301 1301 1301 1300 1300 1300 1299 1299 1300 1302 1303 1304 1305 1306 1309 1311 1314
1359 1355 1350 1347 1342 1338 1334 1329 1325 1321 1317 1313 1309 1306 1304 1301 1299 1298 1296 1295 1294 1293 1293 1294 1293 1293 1293 1293 1293 1294 1296 1297 1298 1299 1301 1302 1305 1308
1352 1348 1343 1339 1334 1329 1325 1321 1318 1314 1310 1306 1303 1299 1297 1294 1292 1290 1288 1287 1286 1285 1285 1286 1286 1286 1287 1287 1288 1289 1291 1292 1293 1294 1296 1297 1299 1302
1344 1339 1335 1330 1326 1322 1318 1314 1311 1308 1304 1301 1297 1294 1291 1288 1286 1284 1282 1280 1279 1278 1279 1279 1280 1280 1281 1281 1283 1283 1285 1287 1288 1290 1292 1293 1295 1298
1337 1331 1327 1323 1318 1315 1311 1308 1305 1302 1299 1295 1292 1289 1286 1283 1281 1279 1277 1276 1274 1273 1273 1274 1274 1274 1275 1276 1277 1278 1280 1282 1284 1286 1288 1290 1292 1294
1331 1325 1321 1317 1313 1310 1306 1303 1300 1297 1293 1290 1287 1284 1281 1279 1276 1274 1273 1271 1270 1269 1269 1269 1269 1270 1271 1271 1273 1273 1275 1277 1280 1282 1284 1286 1288 1291
1324 1319 1315 1312 1308 1305 1301 1298 1295 1292 1289 1286 1283 1280 1277 1275 1272 1270 1268 1267 1266 1265 1265 1265 1265 1265 1266 1266 1267 1269 1271 1273 1275 1278 1280 1282 1284 1287
1317 1313 1310 1306 1303 1300 1296 1293 1290 1287 1284 1281 1278 1276 1273 1271 1268 1266 1265 1263 1262 1261 1260 1260 1260 1261 1261 1262 1263 1264 1266 1268 1271 1273 1275 1278 1281 1284
1311 1307 1304 1301 1297 1294 1291 1288 1285 1282 1279 1276 1274 1271 1269 1266 1264 1262 1260 1259 1258 1256 1256 1255 1255 1257 1257 1258 1259 1259 1261 1264 1266 1268 1271 1273 1276 1278
1304 1301 1298 1294 1291 1288 1285 1282 1279 1276 1273 1271 1268 1266 1264 1262 1259 1257 1256 1254 1253 1252 1251 1251 1251 1252 1252 1253 1253 1254 1256 1258 1261 1263 1266 1268 1269 1271
1298 1294 1291 1288 1285 1282 1279 1276 1273 1270 1267 1265 1262 1260 1258 1256 1254 1252 1251 1249 1248 1247 1246 1246 1246 1246 1247 1248 1248 1249 1251 1252 1254 1257 1259 1261 1264 1266